[[{"header":{"parameterUnit":"m.s-1","parameterCategory":1,"la1":30.2991,"la2":30.254,"lo1":-89.0895,"lo2":-89.0444,"dy":0.0017,"dx":0.0017,"nx":28,"ny":28,"refTime":"2026-01-11T09:00:00:Z","depth":0,"parameterNumber":2,"parameterNumberName":"U-component_of_WINDS"},"data":[0,0,0,0,0,0,0,0,0,0,0,0,0,0,0,0,0,0,0,0,0,0,0,0,0,0,0,0,0,0,0,0,0,0,0,0,0,0,0,0,0,0,0,0,0,0,0,0,0,0,0,0,0,0,0,0,0,0,1.7175,1.7176,0,1.723,1.7231,1.7231,1.7252,1.7252,1.7252,1.7251,1.7307,1.7308,1.731,0,0,0,0,0,0,0,0,0,0,0,0,0,1.7088,1.709,1.7175,1.7176,1.7176,1.723,1.7231,1.7232,1.7252,1.7252,1.7251,1.7251,1.7306,1.7308,1.731,0,0,0,0,0,0,0,0,0,0,0,0,0,1.7133,1.709,1.7175,1.7193,1.7195,1.723,1.7231,1.7232,1.7252,1.7252,1.7251,1.7251,1.7306,1.7308,1.731,1.7331,0,0,1.7318,1.7319,0,0,0,0,0,0,0,0,1.713,1.7136,1.719,1.7192,1.7194,1.7234,1.7221,1.7265,1.7252,1.723,1.7251,1.7251,1.7283,1.7287,1.7298,1.7333,1.7336,1.7318,1.732,1.7321,1.7321,0,0,0,0,0,0,0,1.7127,1.7134,1.7197,1.719,1.7193,1.7199,1.7205,1.7229,1.7257,1.7232,1.7234,1.724,1.7284,1.7295,1.7299,1.7336,1.7318,1.732,1.7322,1.7323,1.7394,1.7394,0,0,0,0,0,0,1.7121,1.7131,1.7195,1.7198,1.7161,1.7201,1.7207,1.7221,1.7257,1.7262,1.724,1.7241,1.7291,1.7296,1.7301,1.7329,1.7321,1.7323,1.7324,1.7393,1.7394,1.7394,0,0,0,0,0,0,1.7119,1.7127,1.7193,1.7165,1.7174,1.7202,1.7218,1.7223,1.7234,1.7263,1.7268,1.7247,1.7291,1.7298,1.7324,1.7331,1.7324,1.7326,1.7393,1.7393,1.7394,1.7382,0,0,0,0,0,0,1.7117,1.7126,1.7133,1.7165,1.7176,1.7214,1.7218,1.7224,1.7238,1.724,1.7271,1.7276,1.7292,1.732,1.7326,1.7334,1.7328,1.7392,1.7393,1.7394,1.7382,1.7382,1.7383,0,0,0,0,0,1.7114,1.7127,1.7134,1.7141,1.7186,1.7214,1.722,1.7239,1.7239,1.7247,1.7266,1.7275,1.7329,1.7322,1.733,1.7338,1.7392,1.7393,1.7394,1.7382,1.7382,1.7383,0,0,0,0,0,0,1.7094,1.7132,1.7139,1.7164,1.7186,1.7218,1.7228,1.7238,1.726,1.726,1.7282,1.7289,1.7314,1.7329,1.7321,1.7361,1.7361,1.7364,1.735,1.735,1.7351,1.7346,1.733,0,0,0,0,0,1.7093,1.7114,1.7145,1.7164,1.7175,1.72,1.7213,1.7225,1.7249,1.7258,1.7279,1.7302,1.7324,1.7338,1.736,1.7385,1.7392,1.7395,1.7395,1.7395,1.7396,1.7412,1.7414,1.7397,1.7397,1.7397,0,0,1.7091,1.7114,1.7125,1.7161,1.7179,1.72,1.7207,1.7228,1.7244,1.7261,1.7287,1.7304,1.733,1.7356,1.7369,1.7369,1.7403,1.7396,1.7396,1.7397,1.7413,1.7415,1.7416,1.7398,1.7398,1.7398,0,0,1.7096,1.7116,1.7134,1.7153,1.7182,1.7199,1.7203,1.7234,1.7246,1.7273,1.7287,1.7306,1.7344,1.7363,1.7377,1.7394,1.7402,1.74,1.7401,1.7416,1.7417,1.7419,1.7425,1.7427,1.7402,1.7402,1.7402,0,1.7089,1.7121,1.7142,1.7163,1.7179,1.7197,1.7216,1.7234,1.7268,1.7278,1.7279,1.7329,1.7348,1.7379,1.7383,1.7394,1.74,1.7396,1.7416,1.7417,1.7419,1.7425,1.7427,1.7401,1.7401,1.7402,1.7402,0,1.7112,1.7134,1.7145,1.7179,1.7196,1.7216,1.724,1.7255,1.7267,1.7285,1.7313,1.7337,1.7365,1.7373,1.7385,1.7407,1.7407,1.7411,1.7412,1.7419,1.7426,1.7428,1.7401,1.7401,1.7401,1.7401,0,0,1.7105,1.7152,1.7155,1.7172,1.7206,1.7223,1.7245,1.7273,1.7286,1.731,1.7329,1.7362,1.7367,1.7384,1.7398,1.7411,1.7424,1.7414,1.7415,1.7415,1.7451,1.7447,1.7449,1.743,1.7431,1.7431,1.7449,0,1.7115,1.7154,1.7175,1.7206,1.7227,1.7246,1.7265,1.7288,1.7306,1.7327,1.7346,1.7369,1.7374,1.7384,1.7398,1.7419,1.7431,1.7418,1.7448,1.7449,1.744,1.7452,1.7448,1.7462,1.7451,1.7451,1.7452,0,1.7132,1.7157,1.719,1.7223,1.7233,1.7249,1.7278,1.7298,1.7325,1.7337,1.7357,1.7371,1.7396,1.7396,1.743,1.7421,1.7435,1.7447,1.7449,1.7451,1.745,1.7455,1.7468,1.747,1.7456,1.7455,1.7455,0,1.7124,1.7166,1.7191,1.7205,1.7244,1.7256,1.7273,1.73,1.7316,1.7342,1.7353,1.738,1.7395,1.7417,1.7439,1.7436,1.7471,1.7473,1.7482,1.7482,1.7488,1.7487,1.7502,1.7497,1.7497,1.7497,1.7497,0,1.7133,1.7153,1.7189,1.7204,1.7227,1.7251,1.7274,1.7292,1.7317,1.7337,1.7355,1.7373,1.7401,1.7424,1.7441,1.7468,1.7474,1.7485,1.7489,1.7483,1.7482,1.7492,1.7491,1.7498,1.7498,1.7498,1.7497,0,1.7128,1.7152,1.7182,1.7218,1.7227,1.7243,1.7274,1.729,1.7309,1.7335,1.7342,1.7372,1.74,1.7424,1.746,1.7472,1.7499,1.7504,1.749,1.7492,1.75,1.7499,1.7522,1.7526,1.7519,1.7519,1.7519,0,1.7132,1.7147,1.7186,1.7201,1.7218,1.7241,1.7259,1.7284,1.7301,1.7335,1.7348,1.7377,1.7401,1.7445,1.747,1.7498,1.7504,1.7511,1.7508,1.7502,1.7505,1.7503,1.7505,1.751,1.751,1.751,1.751,0,1.7136,1.7148,1.7172,1.7202,1.7222,1.7246,1.7271,1.7282,1.7312,1.7331,1.736,1.7379,1.7417,1.7446,1.7477,1.7495,1.7508,1.7511,1.7514,1.7508,1.7499,1.7504,1.7489,1.751,1.751,1.751,1.751,1.751,1.7135,1.7151,1.7181,1.7208,1.7229,1.7253,1.727,1.7293,1.7317,1.735,1.7364,1.7393,1.7423,1.7466,1.7485,1.7509,1.7511,1.7516,1.7517,1.7518,1.7517,1.7496,1.7515,1.7515,1.7515,1.7515,1.7515,0,1.7141,1.7162,1.7186,1.7221,1.7243,1.7254,1.7282,1.73,1.7326,1.7352,1.7376,1.741,1.7439,1.7468,1.7498,1.7512,1.7518,1.7519,1.7518,1.7522,1.7513,1.7507,1.7513,1.7513,1.7513,1.7513,1.7513,1.7513,1.7146,1.7173,1.7189,1.7228,1.7249,1.7278,1.7293,1.7315,1.7337,1.7374,1.7398,1.7417,1.7445,1.7478,1.7505,1.7513,1.7523,1.7522,1.7532,1.7523,1.7522,1.7522,1.7517,1.7524,1.7524,1.7538,1.7539,1.7539]},{"header":{"parameterUnit":"m.s-1","parameterCategory":1,"la1":30.2991,"la2":30.254,"lo1":-89.0895,"lo2":-89.0444,"dy":0.0017,"dx":0.0017,"nx":28,"ny":28,"refTime":"2026-01-11T09:00:00:Z","depth":0,"parameterNumber":3,"parameterNumberName":"V-component_of_WINDS"},"data":[0,0,0,0,0,0,0,0,0,0,0,0,0,0,0,0,0,0,0,0,0,0,0,0,0,0,0,0,0,0,0,0,0,0,0,0,0,0,0,0,0,0,0,0,0,0,0,0,0,0,0,0,0,0,0,0,0,0,-8.8553,-8.8554,0,-8.8688,-8.869,-8.8691,-8.8615,-8.8611,-8.8607,-8.8604,-8.8737,-8.8743,-8.875,0,0,0,0,0,0,0,0,0,0,0,0,0,-8.8226,-8.8232,-8.8553,-8.8555,-8.8556,-8.8688,-8.869,-8.8692,-8.8616,-8.8611,-8.8606,-8.8602,-8.8734,-8.8742,-8.8751,0,0,0,0,0,0,0,0,0,0,0,0,0,-8.8365,-8.8234,-8.8553,-8.8534,-8.8534,-8.8688,-8.869,-8.8692,-8.8617,-8.8611,-8.8605,-8.86,-8.8731,-8.8742,-8.8752,-8.8929,0,0,-8.8784,-8.8789,0,0,0,0,0,0,0,0,-8.8357,-8.8377,-8.8535,-8.8536,-8.8536,-8.8629,-8.8623,-8.8771,-8.8618,-8.8585,-8.8604,-8.8597,-8.8705,-8.8717,-8.8755,-8.8935,-8.8941,-8.8785,-8.8792,-8.8796,-8.8799,0,0,0,0,0,0,0,-8.8348,-8.8371,-8.8606,-8.8538,-8.8538,-8.8518,-8.8532,-8.8651,-8.8675,-8.8587,-8.8582,-8.86,-8.8704,-8.8745,-8.8757,-8.8943,-8.8785,-8.8794,-8.8801,-8.8805,-8.9279,-8.9285,0,0,0,0,0,0,-8.834,-8.8363,-8.8602,-8.861,-8.8431,-8.8529,-8.8544,-8.8605,-8.8673,-8.8678,-8.8604,-8.8596,-8.873,-8.8745,-8.8762,-8.8975,-8.8796,-8.8806,-8.8812,-8.9272,-8.928,-8.9287,0,0,0,0,0,0,-8.8333,-8.8362,-8.8596,-8.8486,-8.8514,-8.8541,-8.8609,-8.861,-8.8651,-8.8686,-8.8689,-8.8642,-8.8726,-8.8747,-8.8889,-8.8979,-8.8811,-8.882,-8.9265,-8.9275,-8.9283,-8.9403,0,0,0,0,0,0,-8.8324,-8.836,-8.8428,-8.8488,-8.852,-8.8723,-8.8615,-8.8617,-8.867,-8.866,-8.8722,-8.8727,-8.8723,-8.8874,-8.89,-8.899,-8.8828,-8.9257,-8.9269,-8.928,-8.9392,-8.9416,-8.9437,0,0,0,0,0,-8.8313,-8.8454,-8.8432,-8.8461,-8.8606,-8.8728,-8.8747,-8.8741,-8.8678,-8.8746,-8.8769,-8.8725,-8.8965,-8.8889,-8.8917,-8.9013,-8.9251,-8.9266,-8.9279,-8.9381,-8.9411,-8.9436,0,0,0,0,0,0,-8.8402,-8.8462,-8.8437,-8.8603,-8.8662,-8.8715,-8.8801,-8.8772,-8.8848,-8.8835,-8.8823,-8.8838,-8.8986,-8.9013,-8.8928,-8.9189,-8.9098,-8.9119,-8.9166,-8.9194,-8.9216,-8.9207,-8.8837,0,0,0,0,0,-8.8441,-8.8537,-8.8583,-8.8725,-8.8756,-8.8774,-8.8827,-8.8818,-8.8877,-8.8901,-8.8934,-8.8992,-8.908,-8.9139,-8.9222,-8.9395,-8.9408,-8.9475,-8.9497,-8.9516,-8.9533,-8.9629,-8.966,-8.9333,-8.9333,-8.9333,0,0,-8.8522,-8.8567,-8.8628,-8.8744,-8.8789,-8.8888,-8.8795,-8.8903,-8.8976,-8.8916,-8.9054,-8.9081,-8.9144,-8.9304,-8.9376,-8.9331,-8.9627,-8.9534,-8.9548,-8.9556,-8.9647,-8.9678,-8.9705,-8.9343,-8.9341,-8.9339,0,0,-8.8722,-8.8765,-8.8889,-8.8937,-8.9006,-8.9018,-8.9048,-8.9107,-8.9123,-8.9262,-8.922,-8.9306,-8.9458,-8.9507,-8.9551,-8.9773,-8.9735,-8.98,-8.9917,-9.0011,-9.0036,-9.0059,-9.014,-9.0168,-8.9817,-8.9818,-8.9818,0,-8.8813,-8.8962,-8.8956,-8.9069,-8.9121,-8.9076,-8.9201,-8.9247,-8.9339,-8.9376,-8.9325,-8.9518,-8.9557,-8.9729,-8.9784,-8.982,-8.9854,-8.9792,-9.0034,-9.0056,-9.0077,-9.0154,-9.0184,-8.9825,-8.9824,-8.9824,-8.9823,0,-8.9072,-8.9177,-8.9268,-8.9362,-8.9425,-8.9544,-8.9555,-8.962,-8.9606,-8.9623,-8.9765,-8.9812,-8.9905,-8.9945,-8.9931,-9.0115,-9.0086,-9.0035,-8.9943,-9.0116,-9.0188,-9.0217,-8.9836,-8.9833,-8.9831,-8.9829,0,0,-8.9329,-8.9421,-8.9455,-8.9499,-8.9573,-8.9653,-8.977,-8.9864,-8.992,-8.9986,-9.0083,-9.0215,-9.017,-9.0221,-9.0212,-9.0294,-9.0469,-9.0233,-9.0234,-9.0276,-9.0677,-9.0715,-9.0749,-9.0445,-9.0451,-9.0455,-9.0672,0,-8.9534,-8.9741,-8.974,-8.993,-9.0027,-8.9987,-9.0089,-9.0145,-9.0165,-9.0249,-9.0269,-9.0364,-9.0296,-9.0327,-9.0407,-9.0431,-9.0549,-9.0415,-9.0536,-9.054,-9.0522,-9.0786,-9.0827,-9.1029,-9.07,-9.0704,-9.0708,0,-8.98,-8.9879,-9.008,-9.0144,-9.0184,-9.0276,-9.0364,-9.0445,-9.0509,-9.0517,-9.0576,-9.0556,-9.0674,-9.058,-9.0744,-9.0653,-9.0702,-9.0722,-9.0729,-9.074,-9.0635,-9.0805,-9.1093,-9.1124,-9.0752,-9.0748,-9.0745,0,-8.9969,-9.0125,-9.0266,-9.0304,-9.0382,-9.0448,-9.0483,-9.0541,-9.0599,-9.0675,-9.0712,-9.08,-9.0848,-9.0916,-9.092,-9.0851,-9.1086,-9.0991,-9.1096,-9.1097,-9.1147,-9.1144,-9.1448,-9.1178,-9.1178,-9.1177,-9.1177,0,-9.0198,-9.0323,-9.0344,-9.043,-9.057,-9.0568,-9.0705,-9.0734,-9.0787,-9.0879,-9.0848,-9.0934,-9.0934,-9.1022,-9.1025,-9.1161,-9.1182,-9.1193,-9.1192,-9.1196,-9.1195,-9.1228,-9.1214,-9.1185,-9.1183,-9.1182,-9.1181,0,-9.041,-9.0429,-9.058,-9.0643,-9.0662,-9.0762,-9.0815,-9.0898,-9.0916,-9.1032,-9.1059,-9.1087,-9.1189,-9.12,-9.1317,-9.132,-9.1485,-9.1468,-9.1464,-9.1462,-9.1567,-9.1557,-9.1903,-9.1948,-9.1648,-9.1651,-9.1654,0,-9.0555,-9.0651,-9.0726,-9.0786,-9.0826,-9.0923,-9.0983,-9.0985,-9.1049,-9.1131,-9.1204,-9.1304,-9.1383,-9.1548,-9.1578,-9.1669,-9.1655,-9.177,-9.1668,-9.167,-9.1658,-9.1653,-9.1663,-9.1789,-9.1793,-9.1795,-9.1798,0,-9.0812,-9.0817,-9.0906,-9.0999,-9.1072,-9.1145,-9.1213,-9.1263,-9.1274,-9.1347,-9.1453,-9.1515,-9.1638,-9.1737,-9.1827,-9.1861,-9.1833,-9.183,-9.1859,-9.1864,-9.1858,-9.1864,-9.1519,-9.1822,-9.1819,-9.1817,-9.1816,-9.1815,-9.0995,-9.108,-9.1147,-9.1247,-9.13,-9.1365,-9.1447,-9.1477,-9.1566,-9.1668,-9.1663,-9.178,-9.1844,-9.1962,-9.2004,-9.2094,-9.2056,-9.2098,-9.2109,-9.2119,-9.2131,-9.1844,-9.211,-9.211,-9.2109,-9.2108,-9.2108,0,-9.1251,-9.1294,-9.1386,-9.1485,-9.1564,-9.1532,-9.1607,-9.1675,-9.1779,-9.1842,-9.1923,-9.2045,-9.2142,-9.2181,-9.2277,-9.2342,-9.2331,-9.2367,-9.2362,-9.2371,-9.2159,-9.2125,-9.2375,-9.2374,-9.2374,-9.2374,-9.2374,-9.2374,-9.1394,-9.1536,-9.155,-9.1719,-9.1759,-9.1876,-9.1921,-9.1982,-9.2032,-9.2172,-9.2254,-9.2279,-9.2333,-9.2433,-9.2521,-9.2529,-9.2566,-9.2609,-9.2612,-9.2413,-9.2386,-9.236,-9.2328,-9.2616,-9.2617,-9.2817,-9.2818,-9.282]}]]